Regional Weather Roundup
Issued by NWS

Home | Current Version | Previous Version | Text Only | Print | Product List | Glossary On
Versions: 1 2 3 4 5 6 7 8 9 10 11 12 13 14 15 16 17 18 19 20 21 22 23 24 25 26 27 28 29 30 31 32 33 34 35 36 37 38 39 40 41 42 43 44 45 46 47 48 49 50
000
ASUS43 KDTX 230810
RWRMI
MICHIGAN HOURLY REGIONAL WEATHER ROUNDUP
NATIONAL WEATHER SERVICE DETROIT/PONTIAC MI
400 AM EDT WED JUL 23 2014

NOTE: "FAIR" INDICATES FEW OR NO CLOUDS BELOW 12,000 FEET WITH NO
SIGNIFICANT WEATHER AND/OR OBSTRUCTION TO VISIBILITY.

MIZ047>049-052>055-059>063-066>070-074>076-081>083-230900-
SOUTHEAST LOWER MICHIGAN

CITY           SKY/WX    TMP DP  RH WIND       PRES   REMARKS
ADRIAN         CLOUDY    75  68  78 W8        29.94R
ALMA           CLOUDY    62  57  83 NW12G18   29.95F
ANN ARBOR      CLOUDY    76  61  59 NW12      29.92R
BAD AXE        CLOUDY    67  61  83 N16G23    29.92S
CARO           CLOUDY    68  65  90 N16G23    29.92R
DETROIT CITY   CLOUDY    78  69  73 S7        29.90R
DETROIT        CLOUDY    75  69  81 S10       29.90S
FLINT          CLOUDY    74  66  76 NW14G21   29.92R
GROSSE ILE     CLOUDY    75  72  88 S13       29.91R
HILLSDALE      CLOUDY    73  62  69 SW3       29.95R
HOWELL         CLOUDY    71  66  82 N8        29.92R

CITY           SKY/WX    TMP DP  RH WIND       PRES   REMARKS
JACKSON        CLOUDY    71  65  81 N6        29.93R
LAMBERTVILLE   CLOUDY    73  70  88 SW6       29.96R
LANSING        CLOUDY    70  65  84 N10       29.92F
LAPEER         CLOUDY    73  65  77 N10       29.92R
MASON          CLOUDY    69  66  89 NW10      29.92R
MONROE         CLOUDY    73  72  94 S9        29.92R
MT. CLEMENS    CLOUDY    75  71  88 S8        29.90R
PONTIAC        CLOUDY    75  65  70 NW8       29.91R
PORT HOPE        N/A     67  62  84 VRB3      29.90S
PORT HURON     CLOUDY    77  68  73 N8        29.90R
TRI CITIES     CLOUDY    65  59  81 NW17      29.94F
TROY           CLOUDY    78  68  70 W6        29.90F
SAGINAW HB     CLOUDY    64  61  88 NW25      29.93R
$$
MIZ043>046-050>051-056>058-064>065-071>073-077>080-230900-
SOUTHWEST LOWER MICHIGAN

CITY           SKY/WX    TMP DP  RH WIND       PRES   REMARKS
BATTLE CREEK   CLOUDY    69  64  84 W10       29.94F
BENTON HARBOR  CLOUDY    69  67  93 VRB3      29.99S
BIG RAPIDS     CLOUDY    62  55  76 N14G21    30.01F
COLDWATER      LGT RAIN  71  66  86 W12G20    29.93S
FREMONT        FAIR      61  57  87 N9        30.02F
HOLLAND        CLOUDY    67  61  81 N7G17     30.00S
GRAND RAPIDS   CLOUDY    69  64  84 N10       29.97F
IONIA          CLOUDY    67  62  83 NW6       29.94F
KALAMAZOO      CLOUDY    69  65  86 W10       29.96F
LUDINGTON      CLEAR     59  57  92 N7        30.06F
MARSHALL       CLOUDY    67  64  91 W15       29.92F
MOUNT PLEASANT CLOUDY    63  57  81 NW9G18    29.97F
MUSKEGON       CLOUDY    64  58  80 N9        30.02F
SOUTH HAVEN    CLOUDY    70  70 100 N5        29.98S
$$
MIZ016>042-230900-
NORTHERN LOWER MICHIGAN

CITY           SKY/WX    TMP DP  RH WIND       PRES   REMARKS
ALPENA         CLOUDY    60  55  83 N12       29.97S
BEAVER ISLAND  CLEAR     58  56  94 NW8       30.07R
BELLAIRE       PTCLDY    60  55  84 N3        30.03S
CADILLAC       CLOUDY    59  56  91 N12       30.03F
CHARLEVOIX     CLEAR     61  57  87 N14G20    30.07S
FRANKFORT      PTCLDY    60  55  81 N6        30.07S
GAYLORD        CLOUDY    59  53  80 N9        30.03S
GRAYLING       CLOUDY    60  56  85 N5        30.04R
HARBOR SPRINGS CLEAR     58  55  89 NW3       30.03F
HOUGHTON LAKE  CLOUDY    60  55  83 N9G18     30.02S
MANISTEE       CLEAR     59  54  82 N5        30.08R
OSCODA         CLOUDY    63  56  76 NW23G32   29.92S
PELLSTON       CLEAR     57  55  93 NW7       30.03S
ROGERS CITY    PTCLDY    58  56  92 NW13G20   30.00S
TRAVERSE CITY  PTCLDY    61  55  81 N7        30.04F
$$
MIZ007>008-015-230900-
EASTERN UPPER MICHIGAN

CITY           SKY/WX    TMP DP  RH WIND       PRES   REMARKS
KINROSS        CLEAR     54  54 100 NW8       30.02R
MACKINAC ISLAN CLEAR     56  55  94 NW10      30.02S
NEWBERRY       MOCLDY    52  51  95 NW7       30.07R
S. S. MARIE    MOCLDY    55  52  89 NW8       30.01R
MUNISING         N/A     53  48  83 NE9       30.11R
$$
MIZ004>006-011>014-085-230900-
CENTRAL UPPER MICHIGAN

CITY           SKY/WX    TMP DP  RH WIND       PRES   REMARKS
MANISTIQUE     CLEAR     52  51  96 NW6       30.08S
ESCANABA       CLEAR     57  52  82 N3        30.10S
MENOMINEE      CLEAR     55  52  88 N3        30.12R
SAWYER-GWINN   CLOUDY    56  51  84 N12       30.14R
$$
MIZ001>003-009>011-084-230900-
WESTERN UPPER MICHIGAN

CITY           SKY/WX    TMP DP  RH WIND       PRES   REMARKS
IRON MOUNTAIN  PTCLDY    52  50  93 NW5       30.14R
HOUGHTON       PTCLDY    53  50  89 NW6       30.16S
COPPER HARBOR    N/A     52  49  89 W5        30.15R
IRONWOOD       PTCLDY    54  52  94 CALM      30.15
$$

ABBREVIATIONS USED IN REMARKS
   TC - TEMPERATURE IN CELSIUS
  WCI - WIND CHILL INDEX
   HX - HEAT INDEX
  VSB - VISIBILITY



USA.gov is the U.S. government's official web portal to all federal, state and local government web resources and services.